This is the latest recevied weather packets stored in our database for station/object KD4KKF. If no packets are shown the sender has not sent any weather packets the latest 10 day(s).
| Time | Temp. | Humidity | Pressure | Rain* | Wind** | Luminosity | Snow |
|---|---|---|---|---|---|---|---|
| 1777910133 | 23.33° C | 54% | 1016.1 hPa | 0 mm | - | 802 W/m² | - |
| 1777909831 | 22.78° C | 56% | 1016 hPa | 0 mm | - | 794 W/m² | - |
| 1777909527 | 22.78° C | 55% | 1015.9 hPa | 0 mm | - | 814 W/m² | - |
| 1777909225 | 22.22° C | 56% | 1016.2 hPa | 0 mm | - | 818 W/m² | - |
| 1777908923 | 22.22° C | 56% | 1016.1 hPa | 0 mm | - | 624 W/m² | - |
| 1777908621 | 22.78° C | 55% | 1016 hPa | 0 mm | - | 803 W/m² | - |
| 1777908317 | 22.22° C | 59% | 1016.1 hPa | 0 mm | - | 796 W/m² | - |
| 1777908014 | 22.22° C | 58% | 1016.5 hPa | 0 mm | - | 800 W/m² | - |
| 1777907709 | 21.67° C | 61% | 1016.2 hPa | 0 mm | - | 804 W/m² | - |
| 1777907404 | 22.22° C | 63% | 1016.2 hPa | 0 mm | - | 774 W/m² | - |
| 1777907101 | 21.67° C | 65% | 1016 hPa | 0 mm | - | 769 W/m² | - |
| 1777906799 | 21.67° C | 70% | 1016 hPa | 0 mm | - | 746 W/m² | - |
| 1777906496 | 21.67° C | 67% | 1016.5 hPa | 0 mm | - | 774 W/m² | - |
| 1777906192 | 20.56° C | 68% | 1016.2 hPa | 0 mm | - | 762 W/m² | - |
| 1777905889 | 20° C | 69% | 1016.4 hPa | 0 mm | - | 740 W/m² | - |
| 1777905585 | 20° C | 68% | 1016.8 hPa | 0 mm | - | 691 W/m² | - |
| 1777905282 | 19.44° C | 69% | 1016.2 hPa | 0 mm | - | 665 W/m² | - |
| 1777904980 | 19.44° C | 70% | 1016.2 hPa | 0 mm | - | 664 W/m² | - |
| 1777904677 | 19.44° C | 71% | 1016.6 hPa | 0 mm | - | 634 W/m² | - |
| 1777904374 | 18.89° C | 73% | 1016.6 hPa | 0 mm | - | 586 W/m² | - |
| 1777904070 | 18.89° C | 72% | 1016.5 hPa | 0 mm | - | 535 W/m² | - |
| 1777903762 | 18.89° C | 72% | 1016.7 hPa | 0 mm | - | 574 W/m² | - |
| 1777903458 | 17.78° C | 72% | 1016.4 hPa | 0 mm | - | 521 W/m² | - |
| 1777903155 | 17.78° C | 71% | 1016.6 hPa | 0 mm | - | 541 W/m² | - |
| 1777902851 | 16.67° C | 75% | 1016.7 hPa | 0 mm | - | 481 W/m² | - |
* Rain latest hour (hover to see other rain measurements)
** Current wind speed in m/s (hover to see current wind gust speed)